Time,TemperatureF,DewpointF,PressureIn,WindDirection,WindDirectionDegrees,WindSpeedMPH,WindSpeedGustMPH,Humidity,HourlyPrecipIn,Conditions,Clouds,dailyrainin,SoftwareType,DateUTC
2013-01-03 00:02:00,20.0,15.0,-100.00,West,265,6.0,9.0,80,0.00,,,0.00,,2013-01-03 06:02:00,
2013-01-03 00:12:00,20.0,15.0,-100.00,West,265,6.0,9.0,80,0.00,,,0.00,,2013-01-03 06:12:00,
2013-01-03 00:22:00,20.0,15.0,-100.00,West,265,6.0,9.0,80,0.00,,,0.00,,2013-01-03 06:22:00,
2013-01-03 00:53:00,19.0,14.0,-100.00,WSW,252,6.0,8.0,81,0.00,,,0.00,,2013-01-03 06:53:00,
2013-01-03 01:02:00,19.0,14.0,-100.00,WSW,252,6.0,8.0,81,0.00,,,0.00,,2013-01-03 07:02:00,
2013-01-03 01:12:00,19.0,14.0,-100.00,WSW,252,6.0,8.0,81,0.00,,,0.00,,2013-01-03 07:12:00,
2013-01-03 01:22:00,19.0,14.0,-100.00,WSW,252,6.0,8.0,81,0.00,,,0.00,,2013-01-03 07:22:00,
2013-01-03 01:53:00,19.0,14.0,-100.00,West,275,6.0,8.0,81,0.00,,,0.00,,2013-01-03 07:53:00,
2013-01-03 02:02:00,19.0,14.0,-100.00,West,275,6.0,8.0,81,0.00,,,0.00,,2013-01-03 08:02:00,
2013-01-03 02:12:00,19.0,14.0,-100.00,West,275,6.0,8.0,81,0.00,,,0.00,,2013-01-03 08:12:00,
2013-01-03 02:22:00,19.0,14.0,-100.00,West,275,6.0,8.0,81,0.00,,,0.00,,2013-01-03 08:22:00,
2013-01-03 02:53:00,19.0,14.0,-100.00,WNW,287,7.0,9.0,82,0.00,,,0.00,,2013-01-03 08:53:00,
2013-01-03 03:02:00,19.0,14.0,-100.00,WNW,287,7.0,9.0,82,0.00,,,0.00,,2013-01-03 09:02:00,
2013-01-03 03:12:00,19.0,14.0,-100.00,WNW,287,7.0,9.0,82,0.00,,,0.00,,2013-01-03 09:12:00,
2013-01-03 03:22:00,19.0,14.0,-100.00,WNW,287,7.0,9.0,82,0.00,,,0.00,,2013-01-03 09:22:00,
2013-01-03 03:53:00,19.0,15.0,-100.00,West,273,7.0,10.0,83,0.00,,,0.00,,2013-01-03 09:53:00,
2013-01-03 04:02:00,19.0,15.0,-100.00,West,273,7.0,10.0,83,0.00,,,0.00,,2013-01-03 10:02:00,
2013-01-03 04:12:00,19.0,15.0,-100.00,West,273,7.0,10.0,83,0.00,,,0.00,,2013-01-03 10:12:00,
2013-01-03 04:22:00,19.0,15.0,-100.00,West,273,7.0,10.0,83,0.00,,,0.00,,2013-01-03 10:22:00,
2013-01-03 04:53:00,19.0,15.0,-100.00,West,277,6.0,9.0,83,0.00,,,0.00,,2013-01-03 10:53:00,
2013-01-03 05:02:00,19.0,15.0,-100.00,West,277,6.0,9.0,83,0.00,,,0.00,,2013-01-03 11:02:00,
2013-01-03 05:12:00,19.0,15.0,-100.00,West,277,6.0,9.0,83,0.00,,,0.00,,2013-01-03 11:12:00,
2013-01-03 05:22:00,19.0,15.0,-100.00,West,277,6.0,9.0,83,0.00,,,0.00,,2013-01-03 11:22:00,
2013-01-03 05:53:00,19.0,15.0,-100.00,West,281,7.0,9.0,83,0.00,,,0.00,,2013-01-03 11:53:00,
2013-01-03 06:03:00,19.0,15.0,-100.00,West,281,7.0,9.0,83,0.00,,,0.00,,2013-01-03 12:03:00,
2013-01-03 06:12:00,19.0,15.0,-100.00,West,281,7.0,9.0,83,0.00,,,0.00,,2013-01-03 12:12:00,
2013-01-03 06:22:00,19.0,15.0,-100.00,West,281,7.0,9.0,83,0.00,,,0.00,,2013-01-03 12:22:00,
2013-01-03 06:53:00,19.0,14.0,-100.00,WNW,292,8.0,11.0,82,0.00,,,0.00,,2013-01-03 12:53:00,
2013-01-03 07:02:00,19.0,14.0,-100.00,WNW,292,8.0,11.0,82,0.00,,,0.00,,2013-01-03 13:02:00,
2013-01-03 07:13:00,19.0,14.0,-100.00,WNW,292,8.0,11.0,82,0.00,,,0.00,,2013-01-03 13:13:00,
2013-01-03 07:22:00,19.0,14.0,-100.00,WNW,292,8.0,11.0,82,0.00,,,0.00,,2013-01-03 13:22:00,
2013-01-03 07:53:00,19.0,14.0,-100.00,WNW,302,9.0,13.0,82,0.00,,,0.00,,2013-01-03 13:53:00,
2013-01-03 08:03:00,19.0,14.0,-100.00,WNW,302,9.0,13.0,82,0.00,,,0.00,,2013-01-03 14:03:00,
2013-01-03 08:12:00,19.0,14.0,-100.00,WNW,302,9.0,13.0,82,0.00,,,0.00,,2013-01-03 14:12:00,
2013-01-03 08:23:00,19.0,14.0,-100.00,WNW,302,9.0,13.0,82,0.00,,,0.00,,2013-01-03 14:23:00,
2013-01-03 08:53:00,19.0,14.0,-100.00,WNW,295,10.0,14.0,81,0.00,,,0.00,,2013-01-03 14:53:00,
2013-01-03 09:03:00,19.0,14.0,-100.00,WNW,295,10.0,14.0,81,0.00,,,0.00,,2013-01-03 15:03:00,
2013-01-03 09:12:00,19.0,14.0,-100.00,WNW,295,10.0,14.0,81,0.00,,,0.00,,2013-01-03 15:12:00,
2013-01-03 09:22:00,19.0,14.0,-100.00,WNW,295,10.0,14.0,81,0.00,,,0.00,,2013-01-03 15:22:00,
2013-01-03 09:53:00,20.0,15.0,-100.00,WNW,301,11.0,14.0,80,0.00,,,0.00,,2013-01-03 15:53:00,
2013-01-03 10:03:00,20.0,15.0,-100.00,WNW,301,11.0,14.0,80,0.00,,,0.00,,2013-01-03 16:03:00,
2013-01-03 10:12:00,20.0,15.0,-100.00,WNW,301,11.0,14.0,80,0.00,,,0.00,,2013-01-03 16:12:00,
2013-01-03 10:22:00,20.0,15.0,-100.00,WNW,301,11.0,14.0,80,0.00,,,0.00,,2013-01-03 16:22:00,
2013-01-03 10:53:00,21.0,16.0,-100.00,WNW,300,11.0,16.0,80,0.00,,,0.00,,2013-01-03 16:53:00,
2013-01-03 11:03:00,21.0,16.0,-100.00,WNW,300,11.0,16.0,80,0.00,,,0.00,,2013-01-03 17:03:00,
2013-01-03 11:12:00,21.0,16.0,-100.00,WNW,300,11.0,16.0,80,0.00,,,0.00,,2013-01-03 17:12:00,
2013-01-03 11:23:00,21.0,16.0,-100.00,WNW,300,11.0,16.0,80,0.00,,,0.00,,2013-01-03 17:23:00,
2013-01-03 11:53:00,22.0,17.0,-100.00,WNW,298,13.0,19.0,80,0.00,,,0.00,,2013-01-03 17:53:00,
2013-01-03 12:03:00,22.0,17.0,-100.00,WNW,298,13.0,19.0,80,0.00,,,0.00,,2013-01-03 18:03:00,
2013-01-03 12:13:00,22.0,17.0,-100.00,WNW,298,13.0,19.0,80,0.00,,,0.00,,2013-01-03 18:13:00,
2013-01-03 12:22:00,22.0,17.0,-100.00,WNW,298,13.0,19.0,80,0.00,,,0.00,,2013-01-03 18:22:00,
2013-01-03 12:53:00,23.0,17.0,-100.00,WNW,297,13.0,18.0,79,0.00,,,0.00,,2013-01-03 18:53:00,
2013-01-03 13:03:00,23.0,17.0,-100.00,WNW,297,13.0,18.0,79,0.00,,,0.00,,2013-01-03 19:03:00,
2013-01-03 13:12:00,23.0,17.0,-100.00,WNW,297,13.0,18.0,79,0.00,,,0.00,,2013-01-03 19:12:00,
2013-01-03 13:57:00,23.0,17.0,-100.00,WNW,295,12.0,18.0,79,0.00,,,0.00,,2013-01-03 19:57:00,
2013-01-03 14:03:00,23.0,17.0,-100.00,WNW,295,12.0,18.0,79,0.00,,,0.00,,2013-01-03 20:03:00,
2013-01-03 14:12:00,23.0,17.0,-100.00,WNW,295,12.0,18.0,79,0.00,,,0.00,,2013-01-03 20:12:00,
2013-01-03 14:22:00,23.0,17.0,-100.00,WNW,295,12.0,18.0,79,0.00,,,0.00,,2013-01-03 20:22:00,
2013-01-03 14:53:00,24.0,18.0,-100.00,West,281,8.0,15.0,79,0.00,,,0.00,,2013-01-03 20:53:00,
2013-01-03 15:02:00,24.0,18.0,-100.00,West,281,8.0,15.0,79,0.00,,,0.00,,2013-01-03 21:02:00,
2013-01-03 15:12:00,24.0,18.0,-100.00,West,281,8.0,15.0,79,0.00,,,0.00,,2013-01-03 21:12:00,
2013-01-03 15:22:00,24.0,18.0,-100.00,West,281,8.0,15.0,79,0.00,,,0.00,,2013-01-03 21:22:00,
2013-01-03 15:53:00,24.0,18.0,-100.00,WNW,297,11.0,18.0,79,0.00,,,0.00,,2013-01-03 21:53:00,
2013-01-03 16:03:00,24.0,18.0,-100.00,WNW,297,11.0,18.0,79,0.00,,,0.00,,2013-01-03 22:03:00,
2013-01-03 16:12:00,24.0,18.0,-100.00,WNW,297,11.0,18.0,79,0.00,,,0.00,,2013-01-03 22:12:00,
2013-01-03 16:22:00,24.0,18.0,-100.00,WNW,297,11.0,18.0,79,0.00,,,0.00,,2013-01-03 22:22:00,
2013-01-03 16:53:00,24.0,19.0,-100.00,WNW,287,12.0,16.0,81,0.00,,,0.00,,2013-01-03 22:53:00,
2013-01-03 17:03:00,24.0,19.0,-100.00,WNW,287,12.0,16.0,81,0.00,,,0.00,,2013-01-03 23:03:00,
2013-01-03 17:12:00,24.0,19.0,-100.00,WNW,287,12.0,16.0,81,0.00,,,0.00,,2013-01-03 23:12:00,
2013-01-03 17:22:00,24.0,19.0,-100.00,WNW,287,12.0,16.0,81,0.00,,,0.00,,2013-01-03 23:22:00,
2013-01-03 17:53:00,21.0,16.0,-100.00,WNW,299,7.0,17.0,82,0.00,,,0.00,,2013-01-03 23:53:00,
2013-01-03 18:03:00,21.0,16.0,-100.00,WNW,299,7.0,17.0,82,0.00,,,0.00,,2013-01-04 00:03:00,
2013-01-03 18:12:00,21.0,16.0,-100.00,WNW,299,7.0,17.0,82,0.00,,,0.00,,2013-01-04 00:12:00,
2013-01-03 18:22:00,21.0,16.0,-100.00,WNW,299,7.0,17.0,82,0.00,,,0.00,,2013-01-04 00:22:00,
2013-01-03 18:53:00,18.0,15.0,-100.00,WSW,241,5.0,7.0,87,0.00,,,0.00,,2013-01-04 00:53:00,
2013-01-03 19:02:00,18.0,15.0,-100.00,WSW,241,5.0,7.0,87,0.00,,,0.00,,2013-01-04 01:02:00,
2013-01-03 19:12:00,18.0,15.0,-100.00,WSW,241,5.0,7.0,87,0.00,,,0.00,,2013-01-04 01:12:00,
2013-01-03 19:22:00,18.0,15.0,-100.00,WSW,241,5.0,7.0,87,0.00,,,0.00,,2013-01-04 01:22:00,
2013-01-03 19:52:00,16.0,13.0,-100.00,SW,223,5.0,8.0,87,0.00,,,0.00,,2013-01-04 01:52:00,
2013-01-03 20:02:00,16.0,13.0,-100.00,SW,223,5.0,8.0,87,0.00,,,0.00,,2013-01-04 02:02:00,
2013-01-03 20:12:00,16.0,13.0,-100.00,SW,223,5.0,8.0,87,0.00,,,0.00,,2013-01-04 02:12:00,
2013-01-03 20:22:00,16.0,13.0,-100.00,SW,223,5.0,8.0,87,0.00,,,0.00,,2013-01-04 02:22:00,
2013-01-03 20:53:00,15.0,11.0,-100.00,WSW,255,8.0,10.0,84,0.00,,,0.00,,2013-01-04 02:53:00,
2013-01-03 21:02:00,15.0,11.0,-100.00,WSW,255,8.0,10.0,84,0.00,,,0.00,,2013-01-04 03:02:00,
2013-01-03 21:12:00,15.0,11.0,-100.00,WSW,255,8.0,10.0,84,0.00,,,0.00,,2013-01-04 03:12:00,
2013-01-03 21:22:00,15.0,11.0,-100.00,WSW,255,8.0,10.0,84,0.00,,,0.00,,2013-01-04 03:22:00,
2013-01-03 21:53:00,13.0,9.0,-100.00,SSW,206,6.0,11.0,85,0.00,,,0.00,,2013-01-04 03:53:00,
2013-01-03 22:02:00,13.0,9.0,-100.00,SSW,206,6.0,11.0,85,0.00,,,0.00,,2013-01-04 04:02:00,
2013-01-03 22:12:00,13.0,9.0,-100.00,SSW,206,6.0,11.0,85,0.00,,,0.00,,2013-01-04 04:12:00,
2013-01-03 22:22:00,13.0,9.0,-100.00,SSW,206,6.0,11.0,85,0.00,,,0.00,,2013-01-04 04:22:00,
2013-01-03 22:52:00,12.0,9.0,-100.00,SW,235,5.0,8.0,86,0.00,,,0.00,,2013-01-04 04:52:00,
2013-01-03 23:03:00,12.0,9.0,-100.00,SW,235,5.0,8.0,86,0.00,,,0.00,,2013-01-04 05:03:00,
2013-01-03 23:12:00,12.0,9.0,-100.00,SW,235,5.0,8.0,86,0.00,,,0.00,,2013-01-04 05:12:00,
2013-01-03 23:22:00,12.0,9.0,-100.00,SW,235,5.0,8.0,86,0.00,,,0.00,,2013-01-04 05:22:00,
2013-01-03 23:53:00,11.0,7.0,-100.00,WSW,238,6.0,9.0,83,0.00,,,0.00,,2013-01-04 05:53:00,